Time,TemperatureF,DewpointF,PressureIn,WindDirection,WindDirectionDegrees,WindSpeedMPH,WindSpeedGustMPH,Humidity,HourlyPrecipIn,Conditions,Clouds,dailyrainin,SolarRadiationWatts/m^2,SoftwareType,DateUTC
2013-01-19 00:04:00,26.0,14.0,-100.00,SSW,197,2.0,6.0,60,0.00,,,0.00,0.000000,,2013-01-19 05:04:00,
2013-01-19 00:12:00,26.0,14.0,-100.00,SSW,197,2.0,6.0,60,0.00,,,0.00,0.000000,,2013-01-19 05:12:00,
2013-01-19 00:33:00,29.0,19.0,-100.00,SSE,155,5.0,7.0,67,0.00,,,0.00,0.000000,,2013-01-19 05:33:00,
2013-01-19 00:43:00,29.0,19.0,-100.00,SSE,155,5.0,7.0,67,0.00,,,0.00,0.000000,,2013-01-19 05:43:00,
2013-01-19 00:53:00,29.0,19.0,-100.00,SSE,155,5.0,7.0,67,0.00,,,0.00,0.000000,,2013-01-19 05:53:00,
2013-01-19 01:03:00,29.0,19.0,-100.00,SSE,155,5.0,7.0,67,0.00,,,0.00,0.000000,,2013-01-19 06:03:00,
2013-01-19 01:12:00,29.0,19.0,-100.00,SSE,155,5.0,7.0,67,0.00,,,0.00,0.000000,,2013-01-19 06:12:00,
2013-01-19 01:43:00,29.0,20.0,-100.00,SSE,167,6.0,8.0,69,0.00,,,0.00,0.000000,,2013-01-19 06:43:00,
2013-01-19 01:53:00,29.0,20.0,-100.00,SSE,167,6.0,8.0,69,0.00,,,0.00,0.000000,,2013-01-19 06:53:00,
2013-01-19 02:02:00,29.0,20.0,-100.00,SSE,167,6.0,8.0,69,0.00,,,0.00,0.000000,,2013-01-19 07:02:00,
2013-01-19 02:12:00,29.0,20.0,-100.00,SSE,167,6.0,8.0,69,0.00,,,0.00,0.000000,,2013-01-19 07:12:00,
2013-01-19 02:33:00,29.0,20.0,-100.00,South,174,6.0,9.0,69,0.00,,,0.00,0.000000,,2013-01-19 07:33:00,
2013-01-19 02:43:00,29.0,20.0,-100.00,South,174,6.0,9.0,69,0.00,,,0.00,0.000000,,2013-01-19 07:43:00,
2013-01-19 02:53:00,29.0,20.0,-100.00,South,174,6.0,9.0,69,0.00,,,0.00,0.000000,,2013-01-19 07:53:00,
2013-01-19 03:02:00,29.0,20.0,-100.00,South,174,6.0,9.0,69,0.00,,,0.00,0.000000,,2013-01-19 08:02:00,
2013-01-19 03:12:00,29.0,20.0,-100.00,South,174,6.0,9.0,69,0.00,,,0.00,0.000000,,2013-01-19 08:12:00,
2013-01-19 03:33:00,30.0,21.0,-100.00,South,174,7.0,10.0,68,0.00,,,0.00,0.000000,,2013-01-19 08:33:00,
2013-01-19 03:43:00,30.0,21.0,-100.00,South,174,7.0,10.0,68,0.00,,,0.00,0.000000,,2013-01-19 08:43:00,
2013-01-19 03:53:00,30.0,21.0,-100.00,South,174,7.0,10.0,68,0.00,,,0.00,0.000000,,2013-01-19 08:53:00,
2013-01-19 04:02:00,30.0,21.0,-100.00,South,174,7.0,10.0,68,0.00,,,0.00,0.000000,,2013-01-19 09:02:00,
2013-01-19 04:12:00,30.0,21.0,-100.00,South,174,7.0,10.0,68,0.00,,,0.00,0.000000,,2013-01-19 09:12:00,
2013-01-19 04:33:00,30.0,20.0,-100.00,South,174,7.0,11.0,67,0.00,,,0.00,0.000000,,2013-01-19 09:33:00,
2013-01-19 04:43:00,30.0,20.0,-100.00,South,174,7.0,11.0,67,0.00,,,0.00,0.000000,,2013-01-19 09:43:00,
2013-01-19 04:53:00,30.0,20.0,-100.00,South,174,7.0,11.0,67,0.00,,,0.00,0.000000,,2013-01-19 09:53:00,
2013-01-19 05:02:00,30.0,20.0,-100.00,South,174,7.0,11.0,67,0.00,,,0.00,0.000000,,2013-01-19 10:02:00,
2013-01-19 05:12:00,30.0,20.0,-100.00,South,174,7.0,11.0,67,0.00,,,0.00,0.000000,,2013-01-19 10:12:00,
2013-01-19 05:33:00,30.0,20.0,-100.00,South,172,6.0,10.0,66,0.00,,,0.00,0.000000,,2013-01-19 10:33:00,
2013-01-19 05:43:00,30.0,20.0,-100.00,South,172,6.0,10.0,66,0.00,,,0.00,0.000000,,2013-01-19 10:43:00,
2013-01-19 05:53:00,30.0,20.0,-100.00,South,172,6.0,10.0,66,0.00,,,0.00,0.000000,,2013-01-19 10:53:00,
2013-01-19 06:03:00,30.0,20.0,-100.00,South,172,6.0,10.0,66,0.00,,,0.00,0.000000,,2013-01-19 11:03:00,
2013-01-19 06:12:00,30.0,20.0,-100.00,South,172,6.0,10.0,66,0.00,,,0.00,0.000000,,2013-01-19 11:12:00,
2013-01-19 06:13:00,30.0,19.0,-100.00,South,173,4.0,9.0,64,0.00,,,0.00,0.000000,,2013-01-19 11:13:00,
2013-01-19 07:13:00,29.0,19.0,-100.00,SSE,166,5.0,8.0,65,0.00,,,0.00,0.000000,,2013-01-19 12:13:00,
2013-01-19 07:48:00,29.0,19.0,-100.00,SSE,166,5.0,8.0,65,0.00,,,0.00,0.000000,,2013-01-19 12:48:00,
2013-01-19 07:53:00,29.0,19.0,-100.00,SSE,166,5.0,8.0,65,0.00,,,0.00,0.000000,,2013-01-19 12:53:00,
2013-01-19 08:03:00,29.0,19.0,-100.00,SSE,166,5.0,8.0,65,0.00,,,0.00,0.000000,,2013-01-19 13:03:00,
2013-01-19 08:34:00,32.0,20.0,-100.00,SSE,162,7.0,10.0,62,0.00,,,0.00,18.000000,,2013-01-19 13:34:00,
2013-01-19 08:43:00,32.0,20.0,-100.00,SSE,162,7.0,10.0,62,0.00,,,0.00,18.000000,,2013-01-19 13:43:00,
2013-01-19 08:54:00,32.0,20.0,-100.00,SSE,162,7.0,10.0,62,0.00,,,0.00,18.000000,,2013-01-19 13:54:00,
2013-01-19 09:03:00,32.0,20.0,-100.00,SSE,162,7.0,10.0,62,0.00,,,0.00,18.000000,,2013-01-19 14:03:00,
2013-01-19 09:12:00,32.0,20.0,-100.00,SSE,162,7.0,10.0,62,0.00,,,0.00,18.000000,,2013-01-19 14:12:00,
2013-01-19 09:13:00,38.0,22.0,-100.00,South,170,6.0,10.0,53,0.00,,,0.00,142.000000,,2013-01-19 14:13:00,
2013-01-19 09:34:00,38.0,22.0,-100.00,South,170,6.0,10.0,53,0.00,,,0.00,142.000000,,2013-01-19 14:34:00,
2013-01-19 09:43:00,38.0,22.0,-100.00,South,170,6.0,10.0,53,0.00,,,0.00,142.000000,,2013-01-19 14:43:00,
2013-01-19 09:54:00,38.0,22.0,-100.00,South,170,6.0,10.0,53,0.00,,,0.00,142.000000,,2013-01-19 14:54:00,
2013-01-19 10:03:00,38.0,22.0,-100.00,South,170,6.0,10.0,53,0.00,,,0.00,142.000000,,2013-01-19 15:03:00,
2013-01-19 10:13:00,45.0,24.0,-100.00,South,187,9.0,17.0,43,0.00,,,0.00,281.000000,,2013-01-19 15:13:00,
2013-01-19 10:43:00,45.0,24.0,-100.00,South,187,9.0,17.0,43,0.00,,,0.00,281.000000,,2013-01-19 15:43:00,
2013-01-19 10:53:00,45.0,24.0,-100.00,South,187,9.0,17.0,43,0.00,,,0.00,281.000000,,2013-01-19 15:53:00,
2013-01-19 11:03:00,45.0,24.0,-100.00,South,187,9.0,17.0,43,0.00,,,0.00,281.000000,,2013-01-19 16:03:00,
2013-01-19 11:13:00,48.0,23.0,-100.00,South,187,10.0,18.0,37,0.00,,,0.00,389.000000,,2013-01-19 16:13:00,
2013-01-19 11:33:00,48.0,23.0,-100.00,South,187,10.0,18.0,37,0.00,,,0.00,389.000000,,2013-01-19 16:33:00,
2013-01-19 11:43:00,48.0,23.0,-100.00,South,187,10.0,18.0,37,0.00,,,0.00,389.000000,,2013-01-19 16:43:00,
2013-01-19 11:54:00,48.0,23.0,-100.00,South,187,10.0,18.0,37,0.00,,,0.00,389.000000,,2013-01-19 16:54:00,
2013-01-19 12:03:00,48.0,23.0,-100.00,South,187,10.0,18.0,37,0.00,,,0.00,389.000000,,2013-01-19 17:03:00,
2013-01-19 12:13:00,51.0,24.0,-100.00,SSW,194,11.0,16.0,34,0.00,,,0.00,452.000000,,2013-01-19 17:13:00,
2013-01-19 12:38:00,51.0,24.0,-100.00,SSW,194,11.0,16.0,34,0.00,,,0.00,452.000000,,2013-01-19 17:38:00,
2013-01-19 12:50:00,51.0,24.0,-100.00,SSW,194,11.0,16.0,34,0.00,,,0.00,452.000000,,2013-01-19 17:50:00,
2013-01-19 13:12:00,51.0,24.0,-100.00,SSW,194,11.0,16.0,34,0.00,,,0.00,452.000000,,2013-01-19 18:12:00,
2013-01-19 13:13:00,55.0,24.0,-100.00,SSW,193,13.0,18.0,30,0.00,,,0.00,463.000000,,2013-01-19 18:13:00,
2013-01-19 13:38:00,55.0,24.0,-100.00,SSW,193,13.0,18.0,30,0.00,,,0.00,463.000000,,2013-01-19 18:38:00,
2013-01-19 13:48:00,55.0,24.0,-100.00,SSW,193,13.0,18.0,30,0.00,,,0.00,463.000000,,2013-01-19 18:48:00,
2013-01-19 14:03:00,55.0,24.0,-100.00,SSW,193,13.0,18.0,30,0.00,,,0.00,463.000000,,2013-01-19 19:03:00,
2013-01-19 14:10:00,55.0,24.0,-100.00,SSW,193,13.0,18.0,30,0.00,,,0.00,463.000000,,2013-01-19 19:10:00,
2013-01-19 14:13:00,58.0,20.0,-100.00,SSW,202,12.0,22.0,23,0.00,,,0.00,421.000000,,2013-01-19 19:13:00,
2013-01-19 14:50:00,58.0,20.0,-100.00,SSW,202,12.0,22.0,23,0.00,,,0.00,421.000000,,2013-01-19 19:50:00,
2013-01-19 14:59:00,58.0,20.0,-100.00,SSW,202,12.0,22.0,23,0.00,,,0.00,421.000000,,2013-01-19 19:59:00,
2013-01-19 15:12:00,58.0,20.0,-100.00,SSW,202,12.0,22.0,23,0.00,,,0.00,421.000000,,2013-01-19 20:12:00,
2013-01-19 15:13:00,58.0,19.0,-100.00,SSW,200,14.0,23.0,22,0.00,,,0.00,331.000000,,2013-01-19 20:13:00,
2013-01-19 15:40:00,58.0,19.0,-100.00,SSW,200,14.0,23.0,22,0.00,,,0.00,331.000000,,2013-01-19 20:40:00,
2013-01-19 15:50:00,58.0,19.0,-100.00,SSW,200,14.0,23.0,22,0.00,,,0.00,331.000000,,2013-01-19 20:50:00,
2013-01-19 15:59:00,58.0,19.0,-100.00,SSW,200,14.0,23.0,22,0.00,,,0.00,331.000000,,2013-01-19 20:59:00,
2013-01-19 16:08:00,58.0,19.0,-100.00,SSW,200,14.0,23.0,22,0.00,,,0.00,331.000000,,2013-01-19 21:08:00,
2013-01-19 16:13:00,58.0,19.0,-100.00,SSW,199,12.0,21.0,22,0.00,,,0.00,204.000000,,2013-01-19 21:13:00,
2013-01-19 16:54:00,58.0,19.0,-100.00,SSW,199,12.0,21.0,22,0.00,,,0.00,204.000000,,2013-01-19 21:54:00,
2013-01-19 17:02:00,58.0,19.0,-100.00,SSW,199,12.0,21.0,22,0.00,,,0.00,204.000000,,2013-01-19 22:02:00,
2013-01-19 17:13:00,54.0,22.0,-100.00,South,181,7.0,20.0,28,0.00,,,0.00,47.000000,,2013-01-19 22:13:00,
2013-01-19 17:49:00,54.0,22.0,-100.00,South,181,7.0,20.0,28,0.00,,,0.00,47.000000,,2013-01-19 22:49:00,
2013-01-19 17:59:00,54.0,22.0,-100.00,South,181,7.0,20.0,28,0.00,,,0.00,47.000000,,2013-01-19 22:59:00,
2013-01-19 18:13:00,49.0,26.0,-100.00,South,179,9.0,14.0,40,0.00,,,0.00,1.000000,,2013-01-19 23:13:00,
2013-01-19 18:35:00,49.0,26.0,-100.00,South,179,9.0,14.0,40,0.00,,,0.00,1.000000,,2013-01-19 23:35:00,
2013-01-19 18:52:00,49.0,26.0,-100.00,South,179,9.0,14.0,40,0.00,,,0.00,1.000000,,2013-01-19 23:52:00,
2013-01-19 19:08:00,49.0,26.0,-100.00,South,179,9.0,14.0,40,0.00,,,0.00,1.000000,,2013-01-20 00:08:00,
2013-01-19 19:38:00,47.0,27.0,-100.00,South,175,7.0,14.0,45,0.00,,,0.00,0.000000,,2013-01-20 00:38:00,
2013-01-19 19:48:00,47.0,27.0,-100.00,South,175,7.0,14.0,45,0.00,,,0.00,0.000000,,2013-01-20 00:48:00,
2013-01-19 20:04:00,47.0,27.0,-100.00,South,175,7.0,14.0,45,0.00,,,0.00,0.000000,,2013-01-20 01:04:00,
2013-01-19 20:13:00,42.0,24.0,-100.00,South,171,2.0,10.0,48,0.00,,,0.00,0.000000,,2013-01-20 01:13:00,
2013-01-19 20:39:00,42.0,24.0,-100.00,South,171,2.0,10.0,48,0.00,,,0.00,0.000000,,2013-01-20 01:39:00,
2013-01-19 20:52:00,42.0,24.0,-100.00,South,171,2.0,10.0,48,0.00,,,0.00,0.000000,,2013-01-20 01:52:00,
2013-01-19 21:05:00,42.0,24.0,-100.00,South,171,2.0,10.0,48,0.00,,,0.00,0.000000,,2013-01-20 02:05:00,
2013-01-19 21:13:00,45.0,25.0,-100.00,South,189,11.0,16.0,45,0.00,,,0.00,0.000000,,2013-01-20 02:13:00,
2013-01-19 21:38:00,45.0,25.0,-100.00,South,189,11.0,16.0,45,0.00,,,0.00,0.000000,,2013-01-20 02:38:00,
2013-01-19 21:45:00,45.0,25.0,-100.00,South,189,11.0,16.0,45,0.00,,,0.00,0.000000,,2013-01-20 02:45:00,
2013-01-19 21:59:00,45.0,25.0,-100.00,South,189,11.0,16.0,45,0.00,,,0.00,0.000000,,2013-01-20 02:59:00,
2013-01-19 22:09:00,45.0,25.0,-100.00,South,189,11.0,16.0,45,0.00,,,0.00,0.000000,,2013-01-20 03:09:00,
2013-01-19 22:13:00,44.0,24.0,-100.00,SSW,200,10.0,15.0,45,0.00,,,0.00,0.000000,,2013-01-20 03:13:00,
2013-01-19 22:39:00,44.0,24.0,-100.00,SSW,200,10.0,15.0,45,0.00,,,0.00,0.000000,,2013-01-20 03:39:00,
2013-01-19 22:47:00,44.0,24.0,-100.00,SSW,200,10.0,15.0,45,0.00,,,0.00,0.000000,,2013-01-20 03:47:00,
2013-01-19 22:58:00,44.0,24.0,-100.00,SSW,200,10.0,15.0,45,0.00,,,0.00,0.000000,,2013-01-20 03:58:00,
2013-01-19 23:05:00,44.0,24.0,-100.00,SSW,200,10.0,15.0,45,0.00,,,0.00,0.000000,,2013-01-20 04:05:00,
2013-01-19 23:38:00,43.0,24.0,-100.00,SSW,199,10.0,15.0,47,0.00,,,0.00,0.000000,,2013-01-20 04:38:00,
2013-01-19 23:45:00,43.0,24.0,-100.00,SSW,199,10.0,15.0,47,0.00,,,0.00,0.000000,,2013-01-20 04:45:00,
2013-01-19 23:59:00,43.0,24.0,-100.00,SSW,199,10.0,15.0,47,0.00,,,0.00,0.000000,,2013-01-20 04:59:00,